Roxboro, NC

8:51 AM EDT on May 26, 2018 (GMT -0400)
Person County

Weather History for KTDF - October, 2013

Change the Weather History Date:

Friday, October 25, 2013

  Actual Average Record
Temperature  
Mean Temperature 42 °F -  
Max Temperature 53 °F 67 °F 79 °F (1990)
Min Temperature 30 °F 42 °F 28 °F (1993)
Degree Days  
Heating Degree Days 22    
Moisture  
Dew Point 31 °F    
Average Humidity 70    
Maximum Humidity 100    
Minimum Humidity 38    
Precipitation  
Precipitation 0.00 in - - ()
Sea Level Pressure  
Sea Level Pressure 30.30 in    
Wind  
Wind Speed 2 mph (NNW)    
Max Wind Speed 12 mph    
Max Gust Speed 22 mph    
Visibility 10 miles    
Events      
Averages and records for this station are not official NWS values.
T = Trace of Precipitation, MM = Missing Value Source: NWS Daily Summary

Daily Weather History Graph

Daily Weather History Graph

Search for Another Location

Airport or City:

Astronomy

Oct. 25, 2013 Rise Set
Actual Time 7:32 AM EDT 6:27 PM EDT
Civil Twilight 7:06 AM EDT 6:53 PM EDT
Nautical Twilight 6:35 AM EDT 7:23 PM EDT
Astronomical Twilight 6:06 AM EDT 7:53 PM EDT
Moon 11:47 PM EDT (10/25) 1:08 PM EDT (10/25)
Length of Visible Light 11h 47m
Length of Day
10h 54m
Waning Gibbous, 62% of the Moon is Illuminated
Oct 25
Waning Gibbous
Oct 26
Last Quarter
Nov 3
New
Nov 10
First Quarter
Nov 17
Full

Hourly Weather History & Observations

Time (EDT) Temp. Windchill Dew Point Humidity Pressure Visibility Wind Dir Wind Speed Gust Speed Precip Events Conditions
12:15 AM 41.0 °F - 35.6 °F 81% 30.21 in 10.0 mi Calm Calm - N/A   Overcast
12:35 AM 41.0 °F - 35.6 °F 81% 30.21 in 10.0 mi Calm Calm - N/A   Overcast
12:55 AM 42.8 °F 41.1 °F 33.8 °F 70% 30.21 in 10.0 mi North 3.5 mph - N/A   Overcast
1:15 AM 42.8 °F 41.1 °F 33.8 °F 70% 30.21 in 10.0 mi North 3.5 mph - N/A   Overcast
1:35 AM 42.8 °F - 33.8 °F 70% 30.21 in 10.0 mi Calm Calm - N/A   Overcast
1:55 AM 42.8 °F - 32.0 °F 66% 30.22 in 10.0 mi Calm Calm - N/A   Overcast
2:15 AM 42.8 °F - 33.8 °F 70% 30.22 in 10.0 mi Calm Calm - N/A   Overcast
2:35 AM 41.0 °F - 33.8 °F 76% 30.23 in 10.0 mi Calm Calm - N/A   Overcast
2:55 AM 41.0 °F - 33.8 °F 76% 30.23 in 10.0 mi Calm Calm - N/A   Overcast
3:15 AM 41.0 °F - 32.0 °F 70% 30.24 in 10.0 mi Calm Calm - N/A   Overcast
3:35 AM 41.0 °F - 33.8 °F 76% 30.24 in 10.0 mi Calm Calm - N/A   Overcast
3:55 AM 41.0 °F - 33.8 °F 76% 30.24 in 10.0 mi Calm Calm - N/A   Overcast
4:15 AM 41.0 °F - 33.8 °F 76% 30.24 in 10.0 mi Calm Calm - N/A   Overcast
4:35 AM 41.0 °F - 33.8 °F 76% 30.24 in 10.0 mi Calm Calm - N/A   Overcast
4:55 AM 37.4 °F - 33.8 °F 87% 30.25 in 10.0 mi Calm Calm - N/A   Overcast
5:15 AM 37.4 °F - 33.8 °F 87% 30.26 in 10.0 mi Calm Calm - N/A   Mostly Cloudy
5:35 AM 37.4 °F - 33.8 °F 87% 30.27 in 10.0 mi Calm Calm - N/A   Scattered Clouds
5:55 AM 35.6 °F - 33.8 °F 93% 30.27 in 10.0 mi Calm Calm - N/A   Scattered Clouds
6:15 AM 33.8 °F - 33.8 °F 100% 30.27 in 10.0 mi Calm Calm - N/A   Scattered Clouds
6:35 AM 33.8 °F 30.8 °F 32.0 °F 93% 30.28 in 10.0 mi NNW 3.5 mph - N/A   Scattered Clouds
6:55 AM 33.8 °F - 32.0 °F 93% 30.29 in 10.0 mi Calm Calm - N/A   Scattered Clouds
7:15 AM 32.0 °F - 32.0 °F 100% 30.29 in 10.0 mi Calm Calm - N/A   Scattered Clouds
7:35 AM 32.0 °F - 32.0 °F 100% 30.30 in 10.0 mi Calm Calm - N/A   Clear
7:55 AM 32.0 °F - 32.0 °F 100% 30.30 in 10.0 mi Calm Calm - N/A   Clear
8:15 AM 35.6 °F - 33.8 °F 93% 30.31 in 10.0 mi Calm Calm - N/A   Clear
8:35 AM 37.4 °F - 33.8 °F 87% 30.31 in 10.0 mi Calm Calm - N/A   Clear
8:55 AM 41.0 °F 38.0 °F 33.8 °F 76% 30.32 in 10.0 mi NNW 4.6 mph - N/A   Clear
9:15 AM 42.8 °F 38.6 °F 32.0 °F 66% 30.33 in 10.0 mi NNW 6.9 mph - N/A   Clear
9:35 AM 42.8 °F 38.6 °F 32.0 °F 66% 30.34 in 10.0 mi North 6.9 mph - N/A   Clear
9:55 AM 44.6 °F 40.7 °F 32.0 °F 61% 30.34 in 10.0 mi NW 6.9 mph - N/A   Clear
10:15 AM 46.4 °F 42.4 °F 32.0 °F 57% 30.34 in 10.0 mi NNW 8.1 mph - N/A   Clear
10:35 AM 46.4 °F 42.9 °F 30.2 °F 53% 30.34 in 10.0 mi North 6.9 mph 16.1 mph N/A   Clear
10:55 AM 46.4 °F 41.9 °F 30.2 °F 53% 30.34 in 10.0 mi NNW 9.2 mph 18.4 mph N/A   Clear
11:15 AM 46.4 °F 41.1 °F 30.2 °F 53% 30.34 in 10.0 mi North 11.5 mph 21.9 mph N/A   Clear
11:35 AM 48.2 °F - 30.2 °F 50% 30.34 in 10.0 mi NNW 10.4 mph - N/A   Clear
11:55 AM 50.0 °F - 30.2 °F 47% 30.34 in 10.0 mi North 9.2 mph 16.1 mph N/A   Clear
12:15 PM 50.0 °F - 30.2 °F 47% 30.34 in 10.0 mi NW 4.6 mph - N/A   Clear
12:35 PM 51.8 °F - 30.2 °F 44% 30.34 in 10.0 mi NNW 10.4 mph 16.1 mph N/A   Scattered Clouds
12:55 PM 51.8 °F - 30.2 °F 44% 30.33 in 10.0 mi NNW 5.8 mph - N/A   Clear
1:15 PM 51.8 °F - 30.2 °F 44% 30.32 in 10.0 mi North 10.4 mph - N/A   Scattered Clouds
1:35 PM 51.8 °F - 30.2 °F 44% 30.32 in 10.0 mi North 10.4 mph 16.1 mph N/A   Mostly Cloudy
1:55 PM 53.6 °F - 28.4 °F 38% 30.32 in 10.0 mi NNW 8.1 mph - N/A   Mostly Cloudy
2:15 PM 51.8 °F - 26.6 °F 38% 30.31 in 10.0 mi North 5.8 mph 17.3 mph N/A   Mostly Cloudy
2:35 PM 51.8 °F - 26.6 °F 38% 30.31 in 10.0 mi North - - N/A   Scattered Clouds
2:55 PM 51.8 °F - 26.6 °F 38% 30.30 in 10.0 mi North 9.2 mph - N/A   Clear
3:15 PM 51.8 °F - 26.6 °F 38% 30.30 in 10.0 mi NNW 10.4 mph 18.4 mph N/A   Clear
3:35 PM 51.8 °F - 26.6 °F 38% 30.29 in 10.0 mi NNW 11.5 mph - N/A   Clear
3:55 PM 51.8 °F - 26.6 °F 38% 30.30 in 10.0 mi NW 4.6 mph - N/A   Clear
4:15 PM 51.8 °F - 26.6 °F 38% 30.30 in 10.0 mi NW 4.6 mph - N/A   Clear
4:35 PM 51.8 °F - 26.6 °F 38% 30.31 in 10.0 mi NW 8.1 mph - N/A   Clear
4:55 PM 51.8 °F - 26.6 °F 38% 30.31 in 10.0 mi North 5.8 mph - N/A   Clear
5:15 PM 51.8 °F - 26.6 °F 38% 30.31 in 10.0 mi NW 4.6 mph - N/A   Clear
5:35 PM 51.8 °F - 26.6 °F 38% 30.32 in 10.0 mi North 5.8 mph - N/A   Clear
5:55 PM 50.0 °F - 28.4 °F 43% 30.32 in 10.0 mi Calm Calm - N/A   Clear
6:15 PM 46.4 °F - 28.4 °F 50% 30.32 in 10.0 mi Calm Calm - N/A   Clear
6:35 PM 42.8 °F - 32.0 °F 66% 30.32 in 10.0 mi Calm Calm - N/A   Clear
6:55 PM 41.0 °F - 32.0 °F 70% 30.32 in 10.0 mi Calm Calm - N/A   Clear
7:15 PM 39.2 °F - 32.0 °F 75% 30.33 in 10.0 mi Calm Calm - N/A   Clear
7:35 PM 37.4 °F - 32.0 °F 81% 30.33 in 10.0 mi Calm Calm - N/A   Clear
7:55 PM 35.6 °F - 32.0 °F 87% 30.34 in 10.0 mi Calm Calm - N/A   Clear
8:15 PM 35.6 °F - 32.0 °F 87% 30.35 in 10.0 mi Calm Calm - N/A   Clear
8:35 PM 35.6 °F - 32.0 °F 87% 30.35 in 10.0 mi Calm Calm - N/A   Clear
8:55 PM 35.6 °F - 32.0 °F 87% 30.35 in 10.0 mi Calm Calm - N/A   Clear
9:15 PM 33.8 °F - 32.0 °F 93% 30.35 in 10.0 mi Calm Calm - N/A   Clear
9:35 PM 33.8 °F - 32.0 °F 93% 30.36 in 10.0 mi Calm Calm - N/A   Clear
9:55 PM 32.0 °F - 32.0 °F 100% 30.37 in 10.0 mi Calm Calm - N/A   Clear
10:15 PM 33.8 °F - 32.0 °F 93% 30.38 in 10.0 mi Calm Calm - N/A   Clear
10:35 PM 32.0 °F - 32.0 °F 100% 30.38 in 10.0 mi Calm Calm - N/A   Clear
10:55 PM 32.0 °F - 30.2 °F 93% 30.38 in 10.0 mi Calm Calm - N/A   Clear
11:15 PM 32.0 °F - 32.0 °F 100% 30.38 in 10.0 mi Calm Calm - N/A   Clear
11:35 PM 32.0 °F - 32.0 °F 100% 30.38 in 10.0 mi Calm Calm - N/A   Clear
11:55 PM 30.2 °F - 30.2 °F 100% 30.38 in 10.0 mi Calm Calm - N/A   Clear